Shoreham, United Kingdom

6:36 AM GMT on November 23, 2017 (GMT +0000)
Shoreham

Weather History for EGKA - September, 2013

Change the Weather History Date:

Thursday, September 26, 2013

  Actual Average Record
Temperature  
Mean Temperature 62 °F -  
Max Temperature 66 °F 58 °F 71 °F (1997)
Min Temperature 57 °F 50 °F 44 °F (2003)
Degree Days  
Heating Degree Days 2    
Growing Degree Days 12 (Base 50)    
Moisture  
Dew Point 55 °F    
Average Humidity 80    
Maximum Humidity 100    
Minimum Humidity 68    
Precipitation  
Precipitation 0.00 in - - ()
Sea Level Pressure  
Sea Level Pressure 30.02 in    
Wind  
Wind Speed 8 mph ()    
Max Wind Speed 13 mph    
Max Gust Speed -    
Visibility 5.4 miles    
Events      
Averages and records for this station are not official NWS values.
T = Trace of Precipitation, MM = Missing Value Source: Averaged Metar Reports

Daily Weather History Graph

Daily Weather History Graph

Search for Another Location

Airport or City:

Trip Planner

Search our weather history database for the weather conditions in past years. The results will help you decide how hot, cold, wet, or windy it might be!

Date:

Astronomy

Sep. 26, 2013 Rise Set
Actual Time 6:53 AM BST 6:50 PM BST
Civil Twilight 6:20 AM BST 7:22 PM BST
Nautical Twilight 5:42 AM BST 8:01 PM BST
Astronomical Twilight 5:02 AM BST 8:40 PM BST
Moon 11:02 PM BST (9/26) 2:08 PM BST (9/26)
Length of Visible Light 13h 01m
Length of Day
11h 56m
Waning Gibbous, 57% of the Moon is Illuminated
Sep 26
Waning Gibbous
Sep 27
Last Quarter
Oct 5
New
Oct 12
First Quarter
Oct 19
Full

Hourly Weather History & Observations

Time (BST) Temp. Dew Point Humidity Pressure Visibility Wind Dir Wind Speed Gust Speed Precip Events Conditions
12:50 AM 59 °F 59 °F 100% 29.91 in - North 3.5 mph - -  
7:50 AM 59.0 °F 55.4 °F 88% 29.98 in - North 6.9 mph - N/A   Haze
8:20 AM 59.0 °F 55.4 °F 88% 29.98 in - NE 10.4 mph - N/A   Haze
8:50 AM 59.0 °F 55.4 °F 88% 30.01 in 2.8 mi NE 9.2 mph - N/A   Haze
9:20 AM 59.0 °F 55.4 °F 88% 30.01 in 2.8 mi ENE 9.2 mph - N/A   Haze
9:50 AM 60 °F 55 °F 78% 30.03 in - NE 12.7 mph - -  
9:50 AM 59.0 °F 55.4 °F 88% 30.01 in 3.1 mi NE 12.7 mph - N/A   Haze
10:20 AM 59.0 °F 55.4 °F 88% 30.04 in 3.7 mi NE 12.7 mph - N/A   Mostly Cloudy
10:50 AM 59.0 °F 53.6 °F 82% 30.04 in 5.0 mi NE 9.2 mph - N/A   Mostly Cloudy
11:20 AM 59.0 °F 53.6 °F 82% 30.04 in 5.6 mi NE 11.5 mph - N/A   Mostly Cloudy
11:50 AM 60.8 °F 55.4 °F 82% 30.04 in 6.2 mi ENE 9.2 mph - N/A   Mostly Cloudy
12:20 PM 60.8 °F 53.6 °F 77% 30.04 in 6.2 mi ENE 6.9 mph - N/A   Mostly Cloudy
12:50 PM 63 °F 56 °F 72% 30.04 in - ENE 10.4 mph - -  
12:50 PM 62.6 °F 55.4 °F 77% 30.04 in 6.2 mi ENE 9.2 mph - N/A   Scattered Clouds
1:20 PM 62.6 °F 55.4 °F 77% 30.04 in 6.2 mi East 9.2 mph - N/A   Scattered Clouds
1:50 PM 66.2 °F 55.4 °F 68% 30.04 in 6.2 mi East 8.1 mph - N/A   Partly Cloudy
2:20 PM 64.4 °F 55.4 °F 73% 30.04 in 6.2 mi ENE 10.4 mph - N/A   Partly Cloudy
2:50 PM 64.4 °F 55.4 °F 73% 30.01 in 6.2 mi East 8.1 mph - N/A   Partly Cloudy
3:20 PM 64.4 °F 55.4 °F 73% 30.04 in 6.2 mi ESE 6.9 mph - N/A   Partly Cloudy
3:50 PM 63 °F 57 °F 75% 30.04 in - SE 6.9 mph - -  
3:50 PM 62.6 °F 57.2 °F 82% 30.04 in 6.2 mi SE 6.9 mph - N/A   Partly Cloudy
4:20 PM 62.6 °F 57.2 °F 82% 30.04 in 6.2 mi SE 8.1 mph - N/A   Partly Cloudy
4:50 PM 62.6 °F 55.4 °F 77% 30.01 in 6.2 mi SE 9.2 mph - N/A   Partly Cloudy
5:20 PM 62.6 °F 55.4 °F 77% 30.01 in 6.2 mi SE 8.1 mph - N/A   Partly Cloudy
5:50 PM 62.6 °F 55.4 °F 77% 30.01 in - ESE 10.4 mph - N/A   Clear
6:20 PM 60.8 °F 53.6 °F 77% 30.01 in - East 9.2 mph - N/A   Clear
6:50 PM 60 °F 53 °F 71% 30.03 in - East 6.9 mph - -  
6:50 PM 59.0 °F 53.6 °F 82% 30.01 in - East 6.9 mph - N/A   Clear
9:50 PM 57 °F 52 °F 79% 30.04 in - East 6.9 mph - -